Location: Unspecified
(38.0989°N, 0.6729°W)
Time: 07:59:51
(UTC+01:00)

Tiangong 1 - Visible Passes

Search period start: 16 December 2017 00:00
Search period end: 26 December 2017 00:00
Orbit: 274 x 301 km, 42.8° (Epoch: 15 December)

Date Brightness Start Highest point End Pass type
(mag) Time Alt. Az. Time Alt. Az. Time Alt. Az.
18 Dec 3.6 07:05:59 10° S 07:07:32 15° SE 07:09:05 10° ESE visible
19 Dec 2.4 07:08:59 10° SSW 07:11:13 29° SSE 07:13:29 10° E visible
20 Dec 0.9 07:12:40 12° SW 07:14:53 62° SSE 07:17:23 10° ENE visible
21 Dec 0.4 07:16:49 18° W 07:18:29 67° NNW 07:21:00 10° ENE visible
22 Dec 1.0 07:20:37 19° WNW 07:22:02 40° NNW 07:24:27 10° ENE visible
23 Dec 1.6 07:24:09 17° WNW 07:25:31 30° N 07:27:49 10° ENE visible
24 Dec 1.8 07:27:27 15° NW 07:28:56 26° N 07:31:08 10° ENE visible
25 Dec 1.9 07:30:34 14° NW 07:32:14 26° N 07:34:26 10° ENE visible
